Weather History for LTBA - November, 2011

Change the Weather History Date:

Thursday, November 10, 2011

  Actual Average Record
Temperature  
Mean Temperature 52 °F -  
Max Temperature 59 °F 54 °F 71 °F (2010)
Min Temperature 46 °F 45 °F 41 °F (2007)
Degree Days  
Heating Degree Days 12    
Growing Degree Days 2 (Base 50)    
Moisture  
Dew Point 45 °F    
Average Humidity 75    
Maximum Humidity 100    
Minimum Humidity 54    
Precipitation  
Precipitation 0.01 in - - ()
Sea Level Pressure  
Sea Level Pressure 30.11 in    
Wind  
Wind Speed 7 mph ()    
Max Wind Speed 17 mph    
Max Gust Speed 18 mph    
Visibility 5.1 miles    
Events      
Averages and records for this station are not official NWS values.
T = Trace of Precipitation, MM = Missing Value Source: Averaged Metar Reports

Daily Weather History Graph

Daily Weather History Graph

Search for Another Location

Airport or City:

Trip Planner

Search our weather history database for the weather conditions in past years. The results will help you decide how hot, cold, wet, or windy it might be!

Date:

Astronomy

Nov. 10, 2011 Rise Set
Actual Time 6:45 AM EET 4:51 PM EET
Civil Twilight 6:16 AM EET 5:20 PM EET
Nautical Twilight 5:43 AM EET 5:53 PM EET
Astronomical Twilight 5:11 AM EET 6:25 PM EET
Moon 4:26 PM EET (11/10) 6:19 AM EET (11/10)
Length of Visible Light 11h 03m
Length of Day
10h 05m
Full, 100% of the Moon is Illuminated
Nov 10
Full
Nov 10
Full
Nov 18
Last Quarter
Nov 25
New
Dec 2
First Quarter

Hourly Weather History & Observations

Time (EET) Temp. Windchill Dew Point Humidity Pressure Visibility Wind Dir Wind Speed Gust Speed Precip Events Conditions
12:20 AM 53.6 °F - 50.0 °F 88% 30.09 in 4.3 mi WNW 3.5 mph - N/A   Unknown
12:50 AM 51.8 °F - 50.0 °F 94% 30.09 in 3.7 mi NW 2.3 mph - N/A   Unknown
1:20 AM 50.0 °F - 50.0 °F 100% 30.09 in 3.7 mi Calm Calm - N/A   Unknown
1:50 AM 48.2 °F - 48.2 °F 100% 30.09 in 2.5 mi Calm Calm - N/A   Mist
2:00 AM 49 °F - 48 °F 93% 30.10 in 2 mi Calm Calm - -   Mist
2:20 AM 48.2 °F - 48.2 °F 100% 30.09 in 2.5 mi NNW 2.3 mph - N/A   Mist
2:50 AM 46.4 °F - 46.4 °F 100% 30.06 in 2.5 mi WNW 2.3 mph - N/A   Mist
3:20 AM 48.2 °F - 48.2 °F 100% 30.06 in 2.5 mi NNW 9.2 mph - N/A   Mist
3:50 AM 50.0 °F - 50.0 °F 100% 30.06 in 2.5 mi North 9.2 mph - N/A   Mist
4:20 AM 48.2 °F - 48.2 °F 100% 30.06 in 2.5 mi NNW 8.1 mph - N/A   Mist
4:50 AM 48.2 °F - 48.2 °F 100% 30.06 in 3.7 mi NW 5.8 mph - N/A   Unknown
5:20 AM 46.4 °F 45.2 °F 46.4 °F 100% 30.06 in 3.7 mi NW 3.5 mph - N/A   Unknown
5:50 AM 50.0 °F - 48.2 °F 94% 30.06 in 3.7 mi Variable 1.2 mph - N/A   Partly Cloudy
6:20 AM 48.2 °F - 48.2 °F 100% 30.06 in 3.7 mi NNW 6.9 mph - N/A   Partly Cloudy
6:50 AM 50.0 °F - 50.0 °F 100% 30.09 in 3.7 mi NNW 6.9 mph - N/A   Scattered Clouds
7:20 AM 53.6 °F - 51.8 °F 94% 30.09 in 3.7 mi NNE 5.8 mph - N/A   Mostly Cloudy
7:50 AM 53.6 °F - 51.8 °F 94% 30.09 in 3.7 mi NNE 8.1 mph - N/A   Mostly Cloudy
8:00 AM 54 °F - 51 °F 88% 30.12 in 4 mi NNE 8.1 mph - -   Mist
8:20 AM 55.4 °F - 50.0 °F 82% 30.09 in 3.7 mi NE 6.9 mph - N/A   Mostly Cloudy
8:50 AM 55.4 °F - 48.2 °F 77% 30.09 in 3.7 mi NE 8.1 mph - N/A   Mostly Cloudy
9:20 AM 57.2 °F - 46.4 °F 67% 30.09 in 6.2 mi Variable 9.2 mph - N/A   Scattered Clouds
9:50 AM 57.2 °F - 44.6 °F 63% 30.09 in 6.2 mi NNE 10.4 mph - N/A   Scattered Clouds
10:20 AM 55.4 °F - 44.6 °F 67% 30.09 in 6.2 mi NNE 11.5 mph - N/A   Scattered Clouds
10:50 AM 57.2 °F - 44.6 °F 63% 30.09 in 6.2 mi NE 9.2 mph - N/A   Scattered Clouds
11:20 AM 57.2 °F - 44.6 °F 63% 30.09 in 6.2 mi NE 8.1 mph - N/A   Scattered Clouds
11:50 AM 57.2 °F - 44.6 °F 63% 30.09 in 6.2 mi North 10.4 mph - N/A   Scattered Clouds
12:20 PM 57.2 °F - 46.4 °F 67% 30.09 in 6.2 mi North 13.8 mph - N/A   Scattered Clouds
12:50 PM 57.2 °F - 46.4 °F 67% 30.09 in 6.2 mi NNE 13.8 mph - N/A   Scattered Clouds
1:20 PM 57.2 °F - 46.4 °F 67% 30.09 in 6.2 mi NNE 15.0 mph - N/A   Scattered Clouds
1:50 PM 55.4 °F - 44.6 °F 67% 30.09 in 6.2 mi NNE 17.3 mph - N/A   Scattered Clouds
2:00 PM 55 °F - 46 °F 62% 30.11 in 6 mi NNE 17.3 mph - -   Partly Cloudy
2:20 PM 55.4 °F - 44.6 °F 67% 30.09 in 6.2 mi NNE 12.7 mph - N/A   Scattered Clouds
2:50 PM 55.4 °F - 42.8 °F 63% 30.12 in 6.2 mi North 6.9 mph 18.4 mph N/A   Scattered Clouds
3:20 PM 53.6 °F - 42.8 °F 67% 30.12 in 6.2 mi NNE 12.7 mph - N/A   Scattered Clouds
3:50 PM 53.6 °F - 42.8 °F 67% 30.12 in 6.2 mi NNE 15.0 mph - N/A   Scattered Clouds
4:20 PM 53.6 °F - 42.8 °F 67% 30.12 in 6.2 mi NNE 13.8 mph - N/A   Scattered Clouds
4:50 PM 53.6 °F - 42.8 °F 67% 30.12 in 6.2 mi NNE 13.8 mph - N/A   Scattered Clouds
5:20 PM 53.6 °F - 41.0 °F 62% 30.12 in 6.2 mi NNE 11.5 mph - N/A   Mostly Cloudy
5:50 PM 53.6 °F - 41.0 °F 62% 30.12 in 6.2 mi NNE 11.5 mph - N/A   Mostly Cloudy
6:20 PM 53.6 °F - 41.0 °F 62% 30.12 in 6.2 mi North 15.0 mph - N/A   Mostly Cloudy
6:50 PM 53.6 °F - 41.0 °F 62% 30.12 in 6.2 mi NNE 13.8 mph - N/A   Mostly Cloudy
7:20 PM 53.6 °F - 41.0 °F 62% 30.12 in 6.2 mi NNE 11.5 mph - N/A   Mostly Cloudy
7:50 PM 53.6 °F - 41.0 °F 62% 30.15 in 6.2 mi NNE 10.4 mph - N/A   Mostly Cloudy
8:00 PM 53 °F - 41 °F 54% 30.16 in 6 mi NNE 10.4 mph - -   Mostly Cloudy
8:20 PM 53.6 °F - 41.0 °F 62% 30.15 in 6.2 mi NNE 11.5 mph - N/A   Mostly Cloudy
8:50 PM 51.8 °F - 39.2 °F 62% 30.15 in 6.2 mi NNE 15.0 mph - N/A   Mostly Cloudy
9:20 PM 53.6 °F - 41.0 °F 62% 30.15 in 6.2 mi NNE 12.7 mph - N/A   Mostly Cloudy
9:50 PM 51.8 °F - 39.2 °F 62% 30.18 in 6.2 mi NNE 11.5 mph - N/A   Mostly Cloudy
10:20 PM 51.8 °F - 37.4 °F 58% 30.18 in 6.2 mi NNE 13.8 mph - N/A   Mostly Cloudy
10:50 PM 51.8 °F - 37.4 °F 58% 30.18 in 6.2 mi NNE 12.7 mph - N/A   Mostly Cloudy
11:20 PM 51.8 °F - 37.4 °F 58% 30.18 in 6.2 mi NNE 12.7 mph - N/A   Scattered Clouds
11:50 PM 51.8 °F - 37.4 °F 58% 30.18 in 6.2 mi NNE 12.7 mph - N/A   Scattered Clouds